Tracking 20060 objects as of 6-Dec-2019
HD Live streaming from Space Station
objects crossing your sky now

SSU 1

Track SSU 1 now!
10-day predictions
SSU 1 is classified as:


NORAD ID: 8835
Int'l Code: 1976-038C
Perigee: 506.1 km
Apogee: 1,429.8 km
Inclination: 63.3 °
Period: 104.3 minutes
Semi major axis: 7338 km
RCS: Unknown
Launch date: April 30, 1976
Source: United States (US)
Launch site: AIR FORCE WESTERN TEST RANGE (AFWTR)
aabbcc
Your satellite tracking list
Your tracking list is empty




NASA's NSSDC Master Catalog

Two Line Element Set (TLE):
1  8835U 76038C   19339.74757066 -.00000092 +00000-0 +12016-4 0  9991
2  8835 063.3285 349.8762 0629282 148.0260 216.0644 13.80861063029215
Source of the keplerian elements: McCants